Hourly Data Report for February 21, 2019

TORONTO CITY
ONTARIO
Current Station Operator: ECCC - MSC

43°40'00.000" N
79°24'00.000" W
112.50 m
6158355
71508
XTO

Download Data

Hourly Data (February 2019)
Hourly Data Report for February 21, 2019
TIME
LST
Temp Definition
°C
Dew Point Definition
°C
Rel Hum Definition
%
Precip. Amount Definition
mm

Wind Dir Definition
10's deg

Wind Spd Definition
km/h
Visibility Definition
km
Stn Press Definition
kPa
Hmdx Definition


Wind Chill Definition


Weather Definition


00:00 0.5 -0.4 94 0.2 LegendMM LegendMM   99.31     LegendNANA
01:00 0.9 0.0 94 0.0 LegendMM LegendMM   99.31     LegendNANA
02:00 1.1 0.3 94 0.2 LegendMM LegendMM   99.36     LegendNANA
03:00 1.5 0.7 94 0.0 LegendMM LegendMM   99.43     LegendNANA
04:00 2.3 1.1 92 0.0 LegendMM LegendMM   99.48     LegendNANA
05:00 3.1 0.2 81 0.0 LegendMM LegendMM   99.60     LegendNANA
06:00 3.2 -1.2 73 0.0 LegendMM LegendMM   99.72     LegendNANA
07:00 3.0 -2.1 69 0.0 LegendMM LegendMM   99.76     LegendNANA
08:00 3.4 -3.3 62 0.0 LegendMM LegendMM   99.84     LegendNANA
09:00 3.4 -3.1 62 0.0 LegendMM LegendMM   99.93     LegendNANA
10:00 3.5 -3.4 61 0.0 LegendMM LegendMM   99.98     LegendNANA
11:00 3.6 -4.2 57 0.0 LegendMM LegendMM   100.07     LegendNANA
12:00 3.2 -4.2 58 0.0 LegendMM LegendMM   100.13     LegendNANA
13:00 3.3 -4.0 59 0.0 LegendMM LegendMM   100.18     LegendNANA
14:00 4.4 -5.7 48 0.0       100.18     LegendNANA
15:00 3.6 -6.2 48 0.0       100.27     LegendNANA
16:00 4.0 -5.9 48 0.0       100.32     LegendNANA
17:00 3.1 -5.3 54 0.0       100.44     LegendNANA
18:00 2.1 -6.3 54 0.0       100.58     LegendNANA
19:00 1.6 -6.3 56 0.0       100.70     LegendNANA
20:00 1.0 -6.0 59 0.0       100.75     LegendNANA
21:00 0.7 -6.0 61 0.0       100.79     LegendNANA
22:00 0.2 -6.0 63 0.0       100.86     LegendNANA
23:00 -0.2 -5.8 66 0.0       100.95     LegendNANA

Notes on Data Quality.

Legend

  • E = Estimated
  • M = Missing
  • NA = Not Available*
  • [empty] = Indicates an unobserved value
Date modified: